TimeAKST,TemperatureF,Dew PointF,Humidity,Sea Level PressureIn,VisibilityMPH,Wind Direction,Wind SpeedMPH,Gust SpeedMPH,PrecipitationIn,Events,Conditions,WindDirDegrees,DateUTC
12:53 AM,39.9,33.1,77,30.25,10.0,West,3.5,-,N/A,,Scattered Clouds,260,2013-11-09 09:53:00
1:53 AM,45.0,36.0,71,30.24,10.0,WSW,6.9,-,N/A,,Scattered Clouds,240,2013-11-09 10:53:00
3:53 AM,45.0,37.0,74,30.23,10.0,SSE,3.5,-,N/A,,Mostly Cloudy,160,2013-11-09 12:53:00
4:53 AM,42.1,35.1,76,30.23,10.0,ESE,6.9,-,N/A,,Clear,120,2013-11-09 13:53:00
5:53 AM,46.9,35.1,63,30.24,10.0,WNW,8.1,-,N/A,,Scattered Clouds,290,2013-11-09 14:53:00
6:53 AM,44.1,36.0,73,30.23,10.0,East,5.8,-,N/A,,Mostly Cloudy,90,2013-11-09 15:53:00
7:53 AM,39.0,35.1,86,30.24,10.0,Calm,Calm,-,N/A,,Mostly Cloudy,0,2013-11-09 16:53:00
8:53 AM,39.0,35.1,86,30.24,10.0,WNW,3.5,-,N/A,,Mostly Cloudy,300,2013-11-09 17:53:00
9:53 AM,39.9,36.0,86,30.23,10.0,Calm,Calm,-,N/A,,Mostly Cloudy,0,2013-11-09 18:53:00
10:53 AM,42.1,39.0,89,30.23,10.0,West,4.6,-,N/A,,Clear,270,2013-11-09 19:53:00
11:53 AM,46.0,39.9,79,30.24,10.0,NE,3.5,-,N/A,,Mostly Cloudy,40,2013-11-09 20:53:00
12:53 PM,46.9,41.0,80,30.23,10.0,Calm,Calm,-,N/A,,Clear,0,2013-11-09 21:53:00
1:53 PM,46.9,39.9,77,30.22,10.0,Calm,Calm,-,N/A,,Mostly Cloudy,0,2013-11-09 22:53:00
2:53 PM,46.9,39.9,77,30.21,10.0,Calm,Calm,-,N/A,,Clear,0,2013-11-09 23:53:00
3:53 PM,45.0,39.0,80,30.19,10.0,Calm,Calm,-,N/A,,Mostly Cloudy,0,2013-11-10 00:53:00
4:53 PM,42.1,39.0,89,30.19,10.0,Calm,Calm,-,N/A,,Mostly Cloudy,0,2013-11-10 01:53:00
5:53 PM,39.9,37.0,89,30.18,10.0,WNW,4.6,-,N/A,,Overcast,290,2013-11-10 02:53:00
6:53 PM,39.9,37.9,93,30.17,10.0,West,4.6,-,N/A,,Overcast,260,2013-11-10 03:53:00
7:53 PM,39.9,37.0,89,30.16,10.0,WNW,3.5,-,N/A,,Overcast,290,2013-11-10 04:53:00
8:53 PM,41.0,37.9,89,30.16,10.0,Calm,Calm,-,N/A,,Overcast,0,2013-11-10 05:53:00
9:53 PM,39.9,37.9,93,30.13,10.0,Calm,Calm,-,N/A,,Overcast,0,2013-11-10 06:53:00
10:53 PM,39.9,37.9,93,30.11,10.0,West,3.5,-,N/A,,Overcast,270,2013-11-10 07:53:00
11:53 PM,39.0,37.0,93,30.09,10.0,Calm,Calm,-,N/A,,Overcast,0,2013-11-10 08:53:00